Date,TemperatureHighF,TemperatureAvgF,TemperatureLowF,DewpointHighF,DewpointAvgF,DewpointLowF,HumidityHigh,HumidityAvg,HumidityLow,PressureMaxIn,PressureMinIn,WindSpeedMaxMPH,WindSpeedAvgMPH,GustSpeedMaxMPH,PrecipitationSumIn
2014-1-1,44.8,41.3,35.5,43.5,39.9,34.0,96,95,94,30.71,30.55,0,0,0,0.00
2014-1-2,45.5,43.5,41.6,44.5,42.2,38.6,96,95,89,30.55,30.14,0,0,0,0.00
2014-1-3,41.6,39.1,32.2,39.4,36.4,30.4,94,90,86,30.66,30.25,0,0,0,0.00
2014-1-4,35.1,29.7,26.3,33.5,28.0,24.3,95,93,92,30.78,30.67,0,0,0,0.00
2014-1-5,37.4,28.9,24.1,35.0,26.9,22.2,95,92,90,30.82,30.64,0,0,0,0.00
2014-1-6,37.1,30.5,25.4,35.5,28.6,23.4,95,93,92,30.64,30.41,0,0,0,0.00
2014-1-7,39.1,35.8,32.0,38.0,34.3,30.2,96,95,93,30.43,30.29,0,0,0,0.00
2014-1-8,43.9,39.4,35.8,42.8,38.4,34.5,97,96,93,30.30,29.90,0,0,0,0.00
2014-1-9,44.6,42.8,41.2,42.8,41.5,39.9,95,95,93,30.05,29.98,0,0,0,0.00
2014-1-10,47.0,44.6,41.8,44.6,42.4,40.4,96,92,85,30.32,29.70,0,0,0,0.00
2014-1-11,50.2,45.2,41.9,49.1,43.2,38.6,97,93,82,30.01,29.52,0,0,0,0.00
2014-1-12,48.6,44.7,41.2,46.2,42.9,39.3,96,93,86,30.49,30.01,0,0,0,0.00
2014-1-13,51.5,49.7,48.1,48.3,46.4,44.6,91,88,82,30.86,30.49,0,0,0,0.00
2014-1-14,51.5,48.9,46.4,48.3,46.3,43.8,93,91,88,30.94,30.86,0,0,0,0.00
2014-1-15,49.0,42.6,33.7,44.9,40.0,31.5,93,91,85,30.91,30.82,0,0,0,0.00
2014-1-16,45.2,34.7,29.9,41.9,32.5,27.9,95,92,88,30.81,30.67,0,0,0,0.00
2014-1-17,46.4,35.3,30.2,42.5,33.0,28.3,95,91,86,30.67,30.47,0,0,0,0.00
2014-1-18,41.2,34.4,28.1,38.5,32.4,26.1,95,92,90,30.54,30.46,0,0,0,0.00
2014-1-19,42.5,37.3,34.6,40.1,35.4,32.9,94,93,90,30.62,30.48,0,0,0,0.00
2014-1-20,46.4,35.3,29.9,40.2,32.5,28.1,95,89,77,30.65,30.58,0,0,0,0.00
2014-1-21,43.9,35.3,28.8,40.4,32.7,26.8,94,90,85,30.62,30.53,0,0,0,0.00
2014-1-22,46.1,36.5,30.4,41.1,33.6,28.2,94,90,80,30.75,30.62,0,0,0,0.00
2014-1-23,50.0,34.5,27.0,42.5,31.2,24.8,95,88,72,30.77,30.69,0,0,0,0.00
2014-1-24,52.0,36.8,29.9,45.2,33.6,27.9,95,88,74,30.74,30.60,0,0,0,0.00
2014-1-25,48.2,35.6,29.9,44.6,33.1,27.8,95,91,85,30.67,30.57,0,0,0,0.00
2014-1-26,47.9,33.9,27.4,40.8,30.8,25.4,95,88,75,30.57,30.39,0,0,0,0.00
2014-1-27,44.6,35.1,29.3,42.2,33.0,27.3,94,92,90,30.51,30.41,0,0,0,0.00
2014-1-28,42.8,39.2,34.9,40.7,37.4,33.0,95,94,91,30.53,30.23,0,0,0,0.00
2014-1-29,45.0,40.8,37.3,43.7,39.4,35.6,96,95,94,30.21,29.96,0,0,0,0.00
2014-1-30,40.9,38.2,35.5,39.8,36.2,30.2,96,93,81,30.25,30.07,0,0,0,0.00
2014-1-31,38.9,33.6,26.5,30.2,26.0,22.5,85,74,59,30.47,30.25,0,0,0,0.00